STARLINK-30257 (57526 NORAD) Tracking and Keplerian Element Data

This shows tracking and keplerian element data for the satellite.

Feedback or suggestion? Click here.




ElementValue
Catalog57526
NameSTARLINK-30257
Epoch Orbit2395
Epoch Day12.85941435
Epoch Year2024
RAAN320.2587
Inclination43.0039
Eccentricity4.01E-05
Argument of Perigee229.637
Mean Anonmoly130.4438
Mean Motion15.02539065
Decay Rate0.00014841
L11 57526U 23115F 24012.85941435 .00014841 00000+0 11113-2 0 9991
L22 57526 43.0039 320.2587 0000401 229.6370 130.4438 15.02539065 23955



Live tracking and technical data element details for STARLINK-30257 (NORAD 57526). STARLINK-30257 can be tracked NOW for your location showing map with azimuth and elevation plus other details from your city location.







IsCatalogInMostPopularTable: catalog: 57526, numindb: 23
Update: records affected: 1



GetName: 57526 STARLINK-30257

Hit Count: updated at: Thu, 22 Feb 2024 00:23:55 GMT